Probability
7 8 7 7 6 5 6 7 7 6 4 3 3 3 3 3 3 1 1 3 6 6 6 6 5 4 3 2 2 2 3 5 4 3 3 2 2 3 2 1 0 0 0
7 7 7 6 6 6 7 8 7 6 4 3 3 3 3 3 3 2 2 3 6 7 7 7 6 5 4 4 4 5 5 5 4 4 4 3 2 2 2 1 0 0 0
6 6 6 5 5 6 8 9 8 6 4 3 3 3 3 3 3 3 3 3 4 6 7 8 7 7 6 5 6 6 6 6 4 4 6 5 3 1 1 0 0 0 0
6 6 4 3 4 6 7 8 8 6 4 3 3 3 3 3 3 3 3 3 3 4 6 7 8 9 7 6 6 6 6 6 4 5 6 6 4 2 0 0 0 0 0
6 6 4 2 2 4 5 6 6 4 3 3 4 3 3 3 3 3 3 3 3 3 5 6 7 8 7 6 6 6 6 6 5 5 5 5 5 4 2 0 0 0 0
6 6 5 2 1 2 2 3 4 3 3 4 4 4 4 3 3 3 3 3 3 3 4 5 7 7 6 6 6 7 6 6 6 5 4 3 4 5 3 1 1 0 0
6 6 4 2 1 1 0 1 2 3 3 3 4 5 4 3 2 3 3 2 1 2 3 5 6 6 5 5 6 8 8 6 6 5 3 2 2 4 3 3 2 1 0
4 4 4 3 2 1 1 0 1 2 3 3 3 4 3 2 1 1 2 1 0 1 3 5 5 5 5 4 4 6 7 6 5 4 3 3 2 2 2 3 3 2 1
3 3 3 3 3 3 2 1 0 1 2 2 2 2 1 1 0 0 0 0 0 1 4 5 5 4 4 3 2 2 4 4 3 3 4 4 3 1 1 3 3 3 3
4 3 3 3 3 3 3 2 1 1 1 1 1 1 0 0 0 0 0 0 0 1 3 4 4 3 3 2 1 0 1 1 1 2 3 4 4 2 2 3 3 3 3
6 5 4 4 3 3 3 3 1 1 1 1 1 1 0 0 0 0 0 0 0 1 2 3 3 3 3 2 1 0 0 0 0 1 2 3 3 4 4 3 2 2 2
7 7 7 5 4 4 4 3 3 2 2 2 2 2 1 1 1 1 1 0 0 1 3 3 3 3 3 2 1 0 0 0 0 0 1 1 2 4 4 2 2 1 2
6 7 7 5 4 4 4 4 3 3 3 3 3 3 3 2 2 2 2 1 1 2 3 3 3 3 3 2 1 0 0 0 0 0 0 0 1 2 2 2 2 2 2
3 4 5 4 3 3 4 4 3 3 3 3 3 4 4 4 4 3 3 3 3 3 3 3 3 3 3 2 1 0 0 0 0 0 0 0 0 0 1 1 1 1 1
3 3 3 3 3 3 4 3 2 3 3 3 4 4 5 5 5 4 4 3 3 4 4 3 3 3 3 2 1 0 0 0 0 0 0 0 0 0 0 0 0 0 0
2 2 2 3 4 3 3 2 2 3 3 3 3 4 4 5 6 6 5 4 3 4 4 2 2 3 3 2 1 0 0 0 0 0 0 0 0 0 0 0 0 0 0
1 0 1 1 2 1 1 1 2 4 5 4 4 4 4 4 5 5 5 3 3 4 3 1 2 3 2 1 0 0 0 0 0 0 0 0 0 0 0 0 0 0 0
0 0 0 0 0 0 0 1 1 3 4 5 5 5 4 4 4 3 3 3 4 3 2 1 1 1 1 0 0 0 0 0 0 0 0 0 0 0 0 0 0 0 0
0 0 0 0 0 0 0 0 0 1 1 2 4 5 5 5 4 3 1 2 3 2 1 1 0 0 0 0 0 0 0 0 0 0 0 0 0 0 0 0 0 0 0
0 0 0 0 0 0 0 0 0 0 0 0 1 2 3 4 4 3 2 2 2 1 0 0 0 0 0 0 0 0 0 0 0 0 0 0 0 0 0 0 0 0 0
0 0 0 0 0 0 0 0 0 0 0 0 0 0 1 1 2 2 2 2 2 1 0 0 0 0 0 0 0 0 0 0 0 0 0 0 0 0 0 0 0 0 0
0 0 0 0 0 0 0 0 0 0 0 0 0 0 0 0 1 1 1 1 2 1 0 0 0 0 0 0 0 0 0 0 0 0 0 0 0 0 0 0 0 0 0
0 0 0 0 0 0 0 0 0 0 0 0 0 1 0 0 0 0 0 0 1 1 0 0 0 0 0 0 0 0 0 0 0 0 0 0 0 0 0 0 0 0 0
1 0 0 0 0 0 0 0 0 0 0 0 0 0 0 0 0 0 0 0 0 0 0 0 0 0 0 0 0 0 0 0 0 0 0 0 0 0 0 0 0 0 0
2 1 1 1 1 1 0 0 0 0 0 0 0 0 0 0 0 0 0 0 0 0 0 0 0 0 0 0 0 0 0 0 0 0 0 0 0 0 0 0 0 0 0
3 2 2 3 4 3 1 0 0 0 0 0 0 0 0 0 0 0 0 0 0 0 0 0 0 0 0 0 0 0 0 0 0 0 0 0 0 0 0 0 0 0 0
Wind_Speed
2 1 1 1 1 1 1 1 1 1 1 1 1 2 2 2 2 2 1 4 5 5 5 6 6 6 6 5 5 5 6 6 6 7 7 7 8 8 8 8 7 7 6
2 1 1 1 1 1 1 1 1 1 1 1 1 1 1 2 2 2 1 2 4 4 5 6 6 6 6 6 5 5 5 6 6 6 7 7 7 7 7 8 7 7 7
2 2 1 1 1 1 1 1 1 1 1 1 1 1 1 1 1 2 2 1 2 4 5 5 6 6 6 6 6 6 6 7 8 7 8 8 7 7 7 7 7 7 6
3 2 1 1 1 1 1 1 1 1 1 1 0 0 0 1 1 2 2 2 2 2 4 5 6 6 7 7 7 7 7 7 8 8 8 8 8 8 7 7 7 6 6
3 3 2 1 2 1 1 1 1 1 1 0 0 0 0 0 1 1 2 2 2 2 2 3 5 6 7 7 7 7 7 7 8 8 8 8 8 8 7 7 7 6 6
3 3 2 2 2 2 1 1 1 1 1 1 0 1 1 1 0 1 1 1 1 2 2 2 2 4 7 7 7 7 7 8 8 8 8 8 8 8 7 7 8 7 7
3 3 2 2 2 2 2 2 2 2 1 1 2 1 2 1 1 1 1 1 1 2 2 2 2 2 3 5 6 7 8 9 8 8 8 8 8 8 8 8 8 7 7
3 3 3 3 3 2 2 2 2 2 1 1 2 1 2 2 2 1 1 2 2 1 2 3 3 3 3 2 4 6 6 8 8 9 9 8 8 8 7 7 7 7 6
3 3 3 3 3 3 3 3 3 3 2 1 1 2 2 2 2 2 1 1 1 1 2 2 4 4 4 3 3 5 5 6 7 9 8 8 8 8 8 8 8 8 7
2 2 2 3 3 3 3 3 3 3 3 2 1 1 1 2 1 1 2 1 1 2 2 2 3 3 3 3 3 4 5 5 6 7 8 8 8 8 8 8 8 8 9
2 2 2 2 2 2 3 3 3 3 3 3 3 2 2 1 1 2 2 2 2 2 2 2 2 2 2 3 3 4 5 5 5 6 7 8 9 9 9 9 9 9 9
1 2 2 2 2 2 2 3 3 4 3 3 2 2 3 2 3 3 3 2 2 2 2 2 2 2 2 2 4 4 5 5 5 5 6 7 8 9 9 9 9 9 9
1 2 2 2 2 2 2 2 2 2 3 3 3 3 3 3 2 3 2 2 2 2 2 1 2 2 2 2 3 5 5 4 5 5 6 7 8 9 9 9 9 9 9
2 2 3 3 2 2 2 2 2 2 2 3 3 3 2 2 3 3 3 3 1 2 2 3 1 2 2 2 3 5 4 5 5 6 6 7 7 8 8 8 8 8 8
2 2 2 2 2 2 2 2 2 2 2 2 2 3 2 2 2 3 3 3 3 2 3 3 2 2 2 3 3 3 4 5 6 6 7 7 6 7 7 7 8 8 8
1 2 2 2 2 2 2 2 2 2 2 2 2 2 3 2 2 2 3 3 3 3 3 3 3 2 3 3 3 4 4 5 5 6 6 6 6 7 7 7 7 8 8
2 2 2 2 1 1 1 2 2 2 3 2 2 3 3 2 2 2 2 3 3 3 4 3 2 2 2 3 2 2 3 3 3 5 6 6 6 7 7 7 8 8 8
2 2 2 2 2 2 2 2 2 2 3 3 3 3 3 2 3 2 2 3 3 4 4 4 3 2 3 3 2 2 2 2 3 4 5 6 6 6 7 7 7 8 8
2 2 2 2 2 2 2 2 2 2 2 2 3 3 4 3 3 2 3 3 3 3 3 3 3 2 2 1 1 1 2 1 2 3 4 5 5 6 6 6 7 7 8
2 2 2 2 2 2 2 2 2 2 2 2 3 3 3 3 3 3 3 3 3 3 2 3 2 2 1 1 1 1 1 1 2 2 2 2 3 5 5 6 7 7 8
2 1 1 1 2 2 2 2 2 2 2 2 2 2 2 2 3 3 2 3 3 2 2 2 1 1 1 1 1 1 2 1 2 1 1 2 2 2 3 4 6 7 7
1 1 1 1 2 2 2 3 2 2 2 2 2 2 2 2 1 2 3 3 4 4 4 3 2 2 3 2 1 1 1 1 2 1 1 2 2 2 3 3 4 5 6
1 1 1 1 1 2 2 2 3 2 2 2 2 2 1 1 1 1 1 1 2 4 5 5 4 4 4 3 3 2 2 2 3 2 1 2 2 3 3 3 4 5 5
1 1 1 1 1 2 1 2 2 2 1 2 2 2 2 1 1 1 0 0 1 2 3 4 4 4 4 3 3 3 3 2 2 2 2 2 2 3 3 3 3 4 5
1 1 1 1 1 2 1 1 2 1 1 1 1 1 1 1 1 1 2 1 1 2 1 1 2 2 2 2 3 2 1 1 2 2 1 2 2 3 3 3 3 4 5
1 1 0 1 1 1 1 1 2 1 1 1 1 1 1 1 1 2 2 2 1 2 1 1 1 1 1 1 2 3 3 2 1 2 2 2 2 1 2 2 2 3 3
Wind_Direction
166 157 133 111 99 88 92 91 94 110 110 112 140 147 155 160 159 158 174 177 175 183 190 191 190 194 197 196 195 193 192 187 186 180 175 173 177 179 183 182 178 179 177
163 163 147 138 146 127 140 147 149 130 131 113 124 133 148 161 167 170 178 190 188 191 199 203 202 204 208 204 200 196 194 191 187 185 180 180 182 181 184 186 184 186 184
164 160 154 161 178 151 138 120 85 80 97 100 79 90 126 161 177 187 194 212 223 217 212 212 212 213 218 217 215 213 205 202 193 191 187 189 189 188 188 191 190 191 191
163 156 162 180 156 134 137 135 112 84 68 79 82 5 121 158 204 210 208 214 228 236 227 223 223 221 220 222 224 223 218 213 204 197 195 198 197 196 195 194 193 194 196
168 163 170 165 148 135 145 170 129 134 139 183 249 340 9 223 239 232 217 214 223 232 237 237 236 231 227 226 228 227 224 220 216 206 205 205 202 200 200 200 200 198 201
171 166 162 156 151 145 164 170 145 136 144 159 132 25 1 329 303 256 240 229 226 229 231 241 245 245 239 237 234 235 231 220 220 209 208 208 203 203 204 205 208 207 209
172 171 174 162 163 173 189 179 154 147 143 111 90 23 3 10 350 274 267 255 241 234 226 229 235 242 248 249 244 237 232 225 221 213 208 204 201 203 207 208 212 213 214
179 183 182 181 181 182 182 175 154 148 151 124 128 98 354 341 333 285 254 240 253 253 242 234 226 226 235 242 252 242 234 226 222 216 209 202 200 198 201 205 207 213 214
190 188 187 181 188 190 193 189 177 172 174 165 140 144 156 234 307 323 306 278 284 266 259 252 241 235 230 231 244 249 240 230 225 220 211 205 201 202 206 209 212 214 215
187 183 179 183 191 193 194 197 185 181 167 178 173 162 169 165 173 307 319 304 289 270 270 270 260 249 236 230 233 245 244 236 229 226 219 212 208 209 212 215 219 223 224
196 196 183 181 189 195 198 192 182 184 183 180 174 163 164 160 173 187 265 300 312 280 270 268 265 256 246 234 231 237 236 233 233 235 225 218 216 216 219 220 223 229 228
209 210 194 192 194 194 196 199 191 185 190 183 181 176 175 176 189 185 216 253 283 294 288 266 255 252 245 231 235 237 231 229 228 232 237 231 224 222 223 224 227 230 230
214 222 208 208 204 204 199 186 179 182 182 181 192 198 199 204 181 174 186 221 259 287 294 262 238 244 244 230 239 241 237 235 237 238 239 239 233 227 225 226 229 231 231
220 214 204 207 206 200 196 179 180 193 180 191 200 197 205 214 195 187 179 178 233 282 279 271 259 233 244 239 244 240 242 242 245 244 244 240 236 231 227 226 229 231 231
212 193 188 193 197 189 185 176 185 200 187 201 210 211 219 225 210 203 191 190 196 240 269 263 259 246 240 237 239 233 236 242 242 246 243 235 230 230 229 228 227 227 225
186 173 172 188 192 189 187 181 190 200 191 215 214 220 233 234 222 205 202 205 203 214 248 255 249 256 247 246 233 232 239 243 242 243 237 228 224 226 227 226 223 219 220
158 165 172 179 193 195 189 182 205 201 204 222 230 227 240 228 219 216 208 207 209 209 235 261 254 257 243 246 249 238 243 241 245 242 236 230 228 228 227 225 223 220 219
166 168 170 175 196 206 199 196 211 215 216 227 234 230 241 227 222 227 218 218 217 215 221 248 261 256 246 242 243 241 249 243 242 242 236 237 235 232 229 226 224 223 222
165 170 175 184 199 205 206 212 211 220 231 239 232 230 236 217 229 235 226 226 223 219 216 229 253 255 262 272 262 262 258 263 256 245 240 239 236 235 233 229 225 223 225
168 186 194 199 205 205 204 207 212 225 241 251 245 236 235 221 225 231 230 228 215 209 212 223 244 262 267 274 229 251 286 284 275 275 260 244 236 235 234 233 232 229 229
178 189 183 204 205 204 209 206 212 221 233 257 266 255 246 237 228 222 229 219 205 202 201 213 232 259 269 255 248 243 250 277 269 255 265 263 250 250 246 239 238 235 233
174 169 202 216 220 234 230 215 209 220 228 235 254 271 269 251 244 222 227 209 196 195 195 197 213 223 235 237 238 229 233 261 277 261 246 274 262 263 266 261 249 237 235
155 162 209 220 242 256 234 211 203 199 215 231 234 245 264 285 262 263 245 210 215 216 200 194 205 219 221 219 210 216 219 232 249 261 239 272 278 278 280 277 262 244 237
161 196 214 225 242 279 260 194 184 190 213 241 240 228 232 269 263 204 159 73 309 274 235 219 218 225 225 216 207 211 221 244 269 268 229 259 281 280 287 279 262 250 250
182 223 212 216 228 273 246 194 168 166 200 266 267 254 236 240 247 152 138 121 5 324 317 233 220 233 225 207 181 158 170 231 281 275 219 239 268 288 287 277 268 251 251
191 210 222 232 235 260 266 212 162 167 204 267 299 299 261 242 236 172 159 157 215 289 318 341 335 302 249 217 190 196 200 214 253 258 216 221 240 263 280 272 285 282 269